Location: Fornova de Taro
(44.7000°N, 10.1000°E)
Time: 21:08:22
(UTC+00:00)

Genesis I - Pass Details

Date: 26 May 2022
Orbit: 463 x 544 km, 64.5° (Epoch: 02 July)

Event Time Altitude Azimuth Distance (km) Brightness Sun altitude
Rises 02:56:12 0° 322° (NW) 2,713 6.9 -7.4°
Reaches altitude 10° 02:58:26 10° 320° (NW) 1,811 6.0 -7.1°
Maximum altitude 03:02:28 69° 237° (WSW) 577 3.2 -6.5°
Drops below altitude 10° 03:06:25 10° 155° (SSE) 1,765 5.8 -5.9°
Sets 03:08:34 0° 152° (SSE) 2,637 6.7 -5.6°
